Starlink 31280

operational
NORAD ID: 58843 Int'l Des: 2024-017 Owner: SPXS Country: US Constellation: starlink
LEOCIRCULAR

About Starlink 31280

Description loading...

Live Position

Loading 3D Globe...

Upcoming Passes

Altitude History

Altitude vs Time

uPlot chart will show altitude changes over time

Two-Line Element Set

1 58843U 24017T 25304.62597848 .00000489 00000-0 28632-4 0 9991
2 58843 53.1610 83.9717 0001124 93.2675 266.8454 15.30195833100296
Epoch: Oct 31, 2025 • Age: 6 hours

Current Status

Altitude 493.8 km
Velocity 7.62 km/s
Sub-Earth Point -51.36°S, 21.47°W
Launch Date Jan 24, 2024
Age 1.7 years
Type internet

Technical Details

Classification Payload
Mass 730.00 kg
Dry Mass 700.00 kg
Total Mass 730.00 kg
Length 0.30 m
Diameter 4.10 m
Span 29.00 m
Shape Box + pan
Manufacturer SPXS
Bus Type Starlink V2M
Phase Status In Orbit
Owner/State SPXS/US

Large Constellations

Loading constellations...